Location: Newark
(5.8900°S, 42.6378°W)
Time: 13:49:34
(UTC+00:00)

XW-2D - Pass Details

Date: 24 October 2019
Orbit: 507 x 528 km, 97.5° (Epoch: 15 November)

Event Time Altitude Azimuth Distance (km) Brightness Sun altitude
Rises 07:41:26 0° 37° (NE) 2,605 ? -11.8°
Reaches altitude 10° 07:43:55 10° 54° (NE) 1,728 ? -11.2°
Maximum altitude 07:46:41 20° 103° (ESE) 1,230 ? -10.5°
Drops below altitude 10° 07:49:29 10° 151° (SSE) 1,746 ? -9.8°
Sets 07:52:00 0° 168° (SSE) 2,642 ? -9.2°
